FW1313 Weather Reports


Display with metric or nautical units.
time (UTC)temp
F
wind
direction
speed
MPH
gust
MPH
rain 1hr
in
rain 24hr
in
rain mn
in
humidity
%
barometer
mb
20260503043358 55 84 0.0 0.0 0.00 0.00 0.00 57 1014.8
20260503040358 55 78 0.0 0.0 0.00 0.00 0.00 57 1014.6
20260503033358 55 94 0.0 0.0 0.00 0.00 0.00 62 1014.6
20260503030358 55 113 0.0 0.0 0.00 0.00 0.00 54 1014.5
20260503023358 57 158 0.0 0.0 0.00 0.00 0.00 57 1014.2
20260503020358 59 201 0.0 0.0 0.00 0.00 0.00 57 1014.2
20260503013358 61 159 0.0 0.0 0.00 0.00 0.00 55 1014.2
20260503010358 62 165 0.0 0.0 0.00 0.00 0.00 44 1014.1
20260503003358 64 198 0.0 0.0 0.00 0.00 0.00 42 1014.0
20260503000401 65 184 0.0 0.0 0.00 0.00 0.00 41 1013.9
20260502233401 66 143 0.0 0.0 0.00 0.00 0.00 38 1013.7
20260502230401 66 208 0.0 1.0 0.00 0.00 0.00 37 1013.6
20260502223358 67 201 0.0 0.0 0.00 0.00 0.00 41 1013.8
20260502220358 67 159 0.0 0.0 0.00 0.00 0.00 44 1013.9
20260502213358 68 170 0.0 1.0 0.00 0.00 0.00 35 1014.1
20260502210358 68 179 0.0 1.0 0.00 0.00 0.00 31 1014.1
20260502203358 69 210 0.0 1.0 0.00 0.00 0.00 27 1014.2
20260502200358 69 262 0.0 0.0 0.00 0.00 0.00 28 1014.3
20260502193358 69 102 0.0 1.0 0.00 0.00 0.00 30 1014.5
20260502190358 70 249 0.0 1.0 0.00 0.00 0.00 28 1014.4
20260502183401 69 159 0.0 0.0 0.00 0.00 0.00 27 1014.5
20260502180358 69 150 0.0 0.0 0.00 0.00 0.00 29 1014.3
20260502170358 65 152 0.0 0.0 0.00 0.00 0.00 26 1014.2
20260502163358 62 137 0.0 0.0 0.00 0.00 0.00 30 1014.1
20260502160358 61 149 0.0 0.0 0.00 0.00 0.00 29 1014.0
20260502150358 57 84 0.0 0.0 0.00 0.00 0.00 33 1013.6
20260502130358 55 67 0.0 0.0 0.00 0.00 0.00 27 1013.4
20260502123358 55 65 0.0 0.0 0.00 0.00 0.00 28 1013.3
20260502120358 55 67 0.0 0.0 0.00 0.00 0.00 28 1013.4
20260502113358 55 70 0.0 0.0 0.00 0.00 0.00 29 1013.8
20260502110358 55 67 0.0 0.0 0.00 0.00 0.00 29 1013.9
20260502103401 55 79 0.0 0.0 0.00 0.00 0.00 29 1014.2
20260502100358 55 78 0.0 0.0 0.00 0.00 0.00 29 1014.4
20260502090358 56 78 0.0 0.0 0.00 0.00 0.00 28 1015.5
20260502070358 55 124 0.0 0.0 0.00 0.00 0.00 29 1017.1
20260502063401 54 124 0.0 0.0 0.00 0.00 0.00 30 1017.2
20260502060358 55 124 0.0 0.0 0.00 0.00 0.00 29 1017.4
20260502053358 55 125 0.0 0.0 0.00 0.00 0.00 30 1017.6
20260502050401 55 125 0.0 0.0 0.00 0.00 0.00 29 1017.7